timestamp,surface_pressure_avg,surface_temp_avg,battery_voltage,lat,long
2019-07-24 00:00:00+00:00,243.1064,15.0,12.97,47.84626,-54.09684
2019-07-24 00:10:00+00:00,245.3164,15.0,12.89,47.84626,-54.09684
2019-07-24 00:20:00+00:00,246.3448,15.07,12.97,47.84626,-54.09684
2019-07-24 00:30:00+00:00,246.3414,15.08,12.97,47.84626,-54.09684
2019-07-24 00:40:00+00:00,251.9881,15.0,12.97,47.84626,-54.09684
2019-07-24 00:50:00+00:00,258.658,15.0,12.97,47.84626,-54.09684
2019-07-24 01:00:00+00:00,263.1464,15.0,12.89,47.84626,-54.09684
2019-07-24 01:10:00+00:00,264.8081,15.05,12.81,47.84626,-54.09684
2019-07-24 01:20:00+00:00,267.9397,15.07,12.89,47.84626,-54.09684
2019-07-24 01:30:00+00:00,272.5863,15.1,12.97,47.84626,-54.09684
2019-07-24 01:40:00+00:00,276.4064,15.1,12.97,47.84626,-54.09684
2019-07-24 01:50:00+00:00,284.063,15.1,12.97,47.84626,-54.09684
2019-07-24 02:00:00+00:00,293.163,15.1,12.89,47.84626,-54.09684
2019-07-24 02:10:00+00:00,300.2565,15.1,12.81,47.84626,-54.09684
2019-07-24 02:20:00+00:00,304.2147,15.12,12.89,47.84626,-54.09684
2019-07-24 02:30:00+00:00,305.788,15.14,12.89,47.84626,-54.09684
2019-07-24 02:40:00+00:00,306.3413,15.17,12.97,47.84626,-54.09684
2019-07-24 02:50:00+00:00,319.203,15.16,12.97,47.84626,-54.09684
2019-07-24 03:00:00+00:00,327.1046,15.12,12.89,47.84626,-54.09684
2019-07-24 03:10:00+00:00,321.328,15.16,12.81,47.84626,-54.09684
2019-07-24 03:20:00+00:00,323.713,15.18,12.89,47.84626,-54.09684
2019-07-24 03:30:00+00:00,333.5046,15.15,12.89,47.84626,-54.09684
2019-07-24 03:40:00+00:00,338.0447,15.16,12.97,47.84626,-54.09684
2019-07-24 03:50:00+00:00,330.3447,15.18,12.97,47.84626,-54.09684
2019-07-24 04:00:00+00:00,330.1446,15.19,12.89,47.84626,-54.09684
2019-07-24 04:10:00+00:00,333.283,15.19,12.81,47.84626,-54.09684
2019-07-24 04:20:00+00:00,325.9863,15.19,12.89,47.84626,-54.09684
2019-07-24 04:30:00+00:00,317.9014,15.17,12.89,47.84626,-54.09684
2019-07-24 04:40:00+00:00,316.7496,15.15,12.89,47.84626,-54.09684
2019-07-24 04:50:00+00:00,318.678,15.16,12.89,47.84626,-54.09684
2019-07-24 05:00:00+00:00,321.4363,15.14,12.81,47.84626,-54.09684
2019-07-24 05:10:00+00:00,318.7864,15.14,12.81,47.84626,-54.09684
2019-07-24 05:20:00+00:00,315.3163,15.1,12.89,47.84626,-54.09684
2019-07-24 05:30:00+00:00,317.1746,15.12,12.89,47.84626,-54.09684
2019-07-24 05:40:00+00:00,318.3747,15.1,12.89,47.84626,-54.09684
2019-07-24 05:50:00+00:00,310.8463,15.1,12.89,47.84626,-54.09684
2019-07-24 06:00:00+00:00,302.3697,15.1,12.81,47.84626,-54.09684
2019-07-24 06:10:00+00:00,299.3597,15.1,12.73,47.84626,-54.09684
2019-07-24 06:20:00+00:00,296.2614,15.1,12.81,47.84626,-54.09684
2019-07-24 06:30:00+00:00,286.7681,15.1,12.81,47.84626,-54.09684
2019-07-24 06:40:00+00:00,282.5964,15.1,12.89,47.84626,-54.09684
2019-07-24 06:50:00+00:00,282.7598,15.1,12.89,47.84626,-54.09684
2019-07-24 07:00:00+00:00,283.9264,15.1,12.81,47.84626,-54.09684
2019-07-24 07:10:00+00:00,274.033,15.1,12.73,47.84626,-54.09684
2019-07-24 07:20:00+00:00,266.3197,15.1,12.81,47.84626,-54.09684
2019-07-24 07:30:00+00:00,265.0497,15.1,12.81,47.84626,-54.09684
2019-07-24 07:40:00+00:00,258.3148,15.1,12.81,47.84626,-54.09684
2019-07-24 07:50:00+00:00,245.863,15.1,12.81,47.84626,-54.09684
2019-07-24 08:00:00+00:00,240.3931,15.1,12.81,47.84626,-54.09684
2019-07-24 08:10:00+00:00,233.9414,15.1,12.73,47.84626,-54.09684
2019-07-24 08:20:00+00:00,225.1948,15.1,12.81,47.84626,-54.09684
2019-07-24 08:30:00+00:00,217.9781,15.12,12.81,47.84626,-54.09684
2019-07-24 08:40:00+00:00,212.3798,15.18,12.81,47.84626,-54.09684
2019-07-24 08:50:00+00:00,211.6298,15.18,12.81,47.84626,-54.09684
2019-07-24 09:00:00+00:00,210.7181,15.19,12.73,47.84626,-54.09684
2019-07-24 09:10:00+00:00,204.0064,15.2,12.73,47.84626,-54.09684
2019-07-24 09:20:00+00:00,198.6981,15.2,12.81,47.84626,-54.09684
2019-07-24 09:30:00+00:00,204.4815,15.19,12.81,47.84626,-54.09684
2019-07-24 09:40:00+00:00,204.1731,15.19,12.81,47.84626,-54.09684
2019-07-24 09:50:00+00:00,196.6798,15.2,12.81,47.84626,-54.09684
2019-07-24 10:00:00+00:00,203.1848,15.2,12.81,47.84626,-54.09684
2019-07-24 10:10:00+00:00,212.1431,15.2,12.73,47.84626,-54.09684
2019-07-24 10:20:00+00:00,212.0414,15.16,12.81,47.84626,-54.09684
2019-07-24 10:30:00+00:00,209.4815,15.18,12.81,47.84626,-54.09684
2019-07-24 10:40:00+00:00,208.8614,15.18,12.89,47.84626,-54.09684
2019-07-24 10:50:00+00:00,210.0815,15.18,12.97,47.84626,-54.09684
2019-07-24 11:00:00+00:00,209.4531,15.17,12.97,47.84626,-54.09684
2019-07-24 11:10:00+00:00,216.1198,15.15,12.89,47.84626,-54.09684
2019-07-24 11:20:00+00:00,221.9031,15.17,12.97,47.84626,-54.09684
2019-07-24 11:30:00+00:00,219.9398,15.18,12.97,47.84626,-54.09684
2019-07-24 11:40:00+00:00,225.2614,15.18,13.05,47.84626,-54.09684
2019-07-24 11:50:00+00:00,234.5515,15.19,13.13,47.84626,-54.09684
2019-07-24 12:00:00+00:00,240.0497,15.2,13.21,47.84626,-54.09684
2019-07-24 12:10:00+00:00,236.9447,15.2,13.29,47.84626,-54.09684
2019-07-24 12:20:00+00:00,234.8314,15.2,13.44,47.84626,-54.09684
2019-07-24 12:30:00+00:00,242.6815,15.2,13.6,47.84626,-54.09684
2019-07-24 12:40:00+00:00,247.6181,15.21,13.68,47.84626,-54.09684
2019-07-24 12:50:00+00:00,244.0497,15.25,13.84,47.84626,-54.09684
2019-07-24 13:00:00+00:00,242.0098,15.29,13.68,47.84626,-54.09684
2019-07-24 13:10:00+00:00,252.8848,15.29,13.6,47.84626,-54.09684
2019-07-24 13:20:00+00:00,259.2864,15.3,13.76,47.84626,-54.09684
2019-07-24 13:30:00+00:00,258.9547,15.3,13.92,47.84626,-54.09684
2019-07-24 13:40:00+00:00,259.5897,15.3,14.0,47.84626,-54.09684
2019-07-24 13:50:00+00:00,270.1514,15.3,14.0,47.84626,-54.09684
2019-07-24 14:00:00+00:00,271.0464,15.29,13.92,47.84626,-54.09684
2019-07-24 14:10:00+00:00,270.1714,15.3,13.76,47.84626,-54.09684
2019-07-24 14:20:00+00:00,274.9964,15.3,13.92,47.84626,-54.09684
2019-07-24 14:30:00+00:00,288.658,15.28,14.0,47.84626,-54.09684
2019-07-24 14:40:00+00:00,291.3414,15.25,14.0,47.84626,-54.09684
2019-07-24 14:50:00+00:00,289.8214,15.28,14.0,47.84626,-54.09684
2019-07-24 15:00:00+00:00,293.478,15.3,14.0,47.84626,-54.09684
2019-07-24 15:10:00+00:00,307.253,15.2,14.0,47.84626,-54.09684
2019-07-24 15:20:00+00:00,306.5563,15.2,14.16,47.84626,-54.09684
2019-07-24 15:30:00+00:00,296.923,15.29,14.24,47.84626,-54.09684
2019-07-24 15:40:00+00:00,302.868,15.29,14.32,47.84626,-54.09684
2019-07-24 15:50:00+00:00,316.958,15.2,14.32,47.84626,-54.09684
2019-07-24 16:00:00+00:00,313.723,15.24,14.24,47.84626,-54.09684
2019-07-24 16:10:00+00:00,303.2997,15.3,14.16,47.84626,-54.09684
2019-07-24 16:20:00+00:00,307.4797,15.29,14.32,47.84626,-54.09684
2019-07-24 16:30:00+00:00,315.918,15.2,14.4,47.84626,-54.09684
2019-07-24 16:40:00+00:00,314.5181,15.2,14.48,47.84626,-54.09684
2019-07-24 16:50:00+00:00,314.4613,15.28,14.4,47.84626,-54.09684
2019-07-24 17:00:00+00:00,312.9747,15.3,14.24,47.84626,-54.09684
2019-07-24 17:10:00+00:00,311.1913,15.3,14.24,47.84626,-54.09684
2019-07-24 17:20:00+00:00,306.9564,15.3,14.48,47.84626,-54.09684
2019-07-24 17:30:00+00:00,308.1163,15.3,14.32,47.84626,-54.09684
2019-07-24 17:40:00+00:00,309.2864,15.3,14.48,47.84626,-54.09684
2019-07-24 17:50:00+00:00,309.048,15.3,14.32,47.84626,-54.09684
2019-07-24 18:00:00+00:00,313.4547,15.3,14.24,47.84626,-54.09684
2019-07-24 18:10:00+00:00,313.9613,15.33,14.16,47.84626,-54.09684
2019-07-24 18:20:00+00:00,303.7931,15.36,14.24,47.84626,-54.09684
2019-07-24 18:30:00+00:00,294.8464,15.39,14.24,47.84626,-54.09684
2019-07-24 18:40:00+00:00,295.7681,15.4,14.32,47.84626,-54.09684
2019-07-24 18:50:00+00:00,294.6263,15.4,14.32,47.84626,-54.09684
2019-07-24 19:00:00+00:00,289.2713,15.4,14.24,47.84626,-54.09684
2019-07-24 19:10:00+00:00,283.738,15.4,14.08,47.84626,-54.09684
2019-07-24 19:20:00+00:00,279.7547,15.3,14.24,47.84626,-54.09684
2019-07-24 19:30:00+00:00,273.3564,15.3,14.24,47.84626,-54.09684
2019-07-24 19:40:00+00:00,274.5431,15.25,14.24,47.84626,-54.09684
2019-07-24 19:50:00+00:00,271.7864,15.26,14.16,47.84626,-54.09684
2019-07-24 20:00:00+00:00,265.5831,15.3,14.08,47.84626,-54.09684
2019-07-24 20:10:00+00:00,255.6597,15.29,14.0,47.84626,-54.09684
2019-07-24 20:20:00+00:00,254.0047,15.29,14.08,47.84626,-54.09684
2019-07-24 20:30:00+00:00,246.5431,15.3,14.08,47.84626,-54.09684
2019-07-24 20:40:00+00:00,236.9981,15.3,14.08,47.84626,-54.09684
2019-07-24 20:50:00+00:00,230.8314,15.3,14.08,47.84626,-54.09684
2019-07-24 21:00:00+00:00,224.2498,15.3,14.0,47.84626,-54.09684
2019-07-24 21:10:00+00:00,215.1998,15.3,13.92,47.84626,-54.09684
2019-07-24 21:20:00+00:00,211.4014,15.38,13.92,47.84626,-54.09684
2019-07-24 21:30:00+00:00,216.4481,15.37,13.84,47.84626,-54.09684
2019-07-24 21:40:00+00:00,210.2381,15.39,13.84,47.84626,-54.09684
2019-07-24 21:50:00+00:00,199.9415,15.5,13.84,47.84626,-54.09684
2019-07-24 22:00:00+00:00,201.3015,15.58,13.76,47.84626,-54.09684
2019-07-24 22:10:00+00:00,210.1481,15.5,13.68,47.84626,-54.09684
2019-07-24 22:20:00+00:00,208.0198,15.5,13.6,47.84626,-54.09684
2019-07-24 22:30:00+00:00,202.7864,15.57,13.6,47.84626,-54.09684
2019-07-24 22:40:00+00:00,206.7314,15.6,13.53,47.84626,-54.09684
2019-07-24 22:50:00+00:00,218.0147,15.59,13.53,47.84626,-54.09684
2019-07-24 23:00:00+00:00,224.2131,15.56,13.37,47.84626,-54.09684
2019-07-24 23:10:00+00:00,224.3031,15.59,13.29,47.84626,-54.09684
2019-07-24 23:20:00+00:00,224.7214,15.6,13.21,47.84626,-54.09684
2019-07-24 23:30:00+00:00,222.4631,15.6,13.21,47.84626,-54.09684
2019-07-24 23:40:00+00:00,222.7381,15.61,13.21,47.84626,-54.09684
2019-07-24 23:50:00+00:00,228.9114,15.6,13.21,47.84626,-54.09684
